Private Wetterstation Sandau
Wetterdaten: Woche 07.01.13 - 13.01.13 (KW2)
Datum Zeit Temp. A. Feuchte A. Luftdruck Regen Wind Richtung Taupunkt Windchill
07.01.2013 00:00 6,9 C 94 % 1025,7 hPa 0,0 l/m 5,1 km/h (1 Bft) N 6,0 C 6,3 C
07.01.2013 01:00 6,7 C 94 % 1025,9 hPa 0,0 l/m 4,1 km/h (1 Bft) N-NW 5,8 C 6,3 C
07.01.2013 02:00 6,4 C 94 % 1026,1 hPa 0,0 l/m 4,9 km/h (1 Bft) NW 5,4 C 5,8 C
07.01.2013 03:00 6,0 C 93 % 1026,7 hPa 0,0 l/m 4,7 km/h (1 Bft) N-NW 5,0 C 5,4 C
07.01.2013 04:00 5,8 C 93 % 1026,8 hPa 0,0 l/m 4,8 km/h (1 Bft) N-NO 4,8 C 5,2 C
07.01.2013 05:00 5,6 C 93 % 1026,7 hPa 0,0 l/m 3,5 km/h (1 Bft) N-NO 4,5 C 5,3 C
07.01.2013 06:00 5,6 C 93 % 1026,9 hPa 0,0 l/m 2,2 km/h (1 Bft) N-NW 4,6 C 5,4 C
07.01.2013 07:00 5,6 C 93 % 1027,4 hPa 0,0 l/m 1,4 km/h (1 Bft) N-NW 4,5 C 5,6 C
07.01.2013 08:00 5,5 C 93 % 1027,7 hPa 0,0 l/m 1,6 km/h (1 Bft) N-NW 4,4 C 5,4 C
07.01.2013 09:00 5,4 C 93 % 1028,0 hPa 0,0 l/m 2,8 km/h (1 Bft) N-NO 4,4 C 5,4 C
07.01.2013 10:00 5,8 C 93 % 1028,2 hPa 0,0 l/m 0,8 km/h (0 Bft) N-NO 4,7 C 5,8 C
07.01.2013 11:00 6,5 C 92 % 1028,0 hPa 0,0 l/m 0,8 km/h (0 Bft) W-NW 5,3 C 6,5 C
07.01.2013 12:00 6,6 C 91 % 1027,9 hPa 0,0 l/m 0,5 km/h (0 Bft) W-NW 5,3 C 6,6 C
07.01.2013 13:00 6,7 C 91 % 1027,5 hPa 0,0 l/m 0,6 km/h (0 Bft) W-NW 5,3 C 6,7 C
07.01.2013 14:00 6,5 C 91 % 1027,6 hPa 0,0 l/m 4,2 km/h (1 Bft) W 5,1 C 5,9 C
07.01.2013 15:00 6,1 C 92 % 1027,4 hPa 0,0 l/m 1,8 km/h (1 Bft) W 4,9 C 6,0 C
07.01.2013 16:00 6,1 C 92 % 1027,5 hPa 0,0 l/m 1,4 km/h (1 Bft) W 4,9 C 6,1 C
07.01.2013 17:00 5,9 C 92 % 1027,3 hPa 0,0 l/m 1,4 km/h (1 Bft) W 4,7 C 5,8 C
07.01.2013 18:00 5,8 C 92 % 1027,3 hPa 0,0 l/m 2,3 km/h (1 Bft) W 4,6 C 5,8 C
07.01.2013 19:00 5,7 C 92 % 1027,4 hPa 0,0 l/m 3,7 km/h (1 Bft) W 4,5 C 5,2 C
07.01.2013 20:00 5,6 C 92 % 1027,1 hPa 0,0 l/m 1,8 km/h (1 Bft) W 4,4 C 5,6 C
07.01.2013 21:00 5,6 C 92 % 1026,8 hPa 0,0 l/m 1,7 km/h (1 Bft) W 4,4 C 5,6 C
07.01.2013 22:00 5,6 C 92 % 1026,3 hPa 0,0 l/m 2,0 km/h (1 Bft) S 4,4 C 5,5 C
07.01.2013 23:00 5,6 C 93 % 1026,1 hPa 0,0 l/m 3,6 km/h (1 Bft) S-SW 4,5 C 5,3 C
08.01.2013 00:00 5,6 C 93 % 1025,6 hPa 0,0 l/m 2,9 km/h (1 Bft) SW 4,6 C 5,5 C
08.01.2013 01:00 5,7 C 93 % 1024,8 hPa 0,5 l/m 6,0 km/h (2 Bft) W-SW 4,6 C 4,7 C
08.01.2013 02:00 5,9 C 93 % 1024,4 hPa 0,0 l/m 4,7 km/h (1 Bft) S-SW 4,8 C 5,4 C
08.01.2013 03:00 6,0 C 93 % 1024,1 hPa 0,0 l/m 3,5 km/h (1 Bft) SW 5,0 C 5,9 C
08.01.2013 04:00 6,2 C 94 % 1023,4 hPa 1,6 l/m 4,4 km/h (1 Bft) W-SW 5,3 C 5,7 C
08.01.2013 05:00 6,4 C 94 % 1022,7 hPa 1,0 l/m 4,4 km/h (1 Bft) W-SW 5,5 C 6,0 C
08.01.2013 06:00 6,5 C 94 % 1022,6 hPa 1,0 l/m 8,8 km/h (2 Bft) W-SW 5,6 C 4,8 C
08.01.2013 07:00 6,6 C 94 % 1022,4 hPa 0,5 l/m 10,8 km/h (2 Bft) W 5,7 C 4,5 C
08.01.2013 08:00 6,5 C 94 % 1022,2 hPa 0,0 l/m 8,3 km/h (2 Bft) W-SW 5,6 C 5,0 C
08.01.2013 09:00 6,6 C 94 % 1022,1 hPa 0,0 l/m 8,1 km/h (2 Bft) W-SW 5,7 C 5,3 C
08.01.2013 10:00 6,7 C 94 % 1022,3 hPa 0,5 l/m 9,3 km/h (2 Bft) W 5,9 C 5,0 C
08.01.2013 11:00 6,9 C 94 % 1022,1 hPa 0,0 l/m 7,9 km/h (2 Bft) W-SW 6,0 C 5,5 C
08.01.2013 12:00 7,0 C 94 % 1021,8 hPa 0,0 l/m 9,4 km/h (2 Bft) W-SW 6,1 C 5,3 C
08.01.2013 13:00 7,1 C 94 % 1021,5 hPa 0,0 l/m 6,7 km/h (2 Bft) W-NW 6,2 C 6,0 C
08.01.2013 14:00 7,1 C 94 % 1021,4 hPa 0,5 l/m 7,6 km/h (2 Bft) W 6,2 C 5,8 C
08.01.2013 15:00 6,9 C 94 % 1021,6 hPa 0,0 l/m 4,8 km/h (1 Bft) W-NW 6,0 C 6,4 C
08.01.2013 16:00 6,9 C 94 % 1021,8 hPa 0,0 l/m 4,4 km/h (1 Bft) W 6,0 C 6,5 C
08.01.2013 17:00 6,9 C 94 % 1022,0 hPa 0,0 l/m 5,6 km/h (1 Bft) W 6,0 C 6,1 C
08.01.2013 18:00 6,9 C 94 % 1022,2 hPa 0,0 l/m 5,2 km/h (1 Bft) W-NW 6,0 C 6,2 C
08.01.2013 19:00 6,9 C 94 % 1022,3 hPa 0,0 l/m 5,3 km/h (1 Bft) W-NW 6,0 C 6,2 C
08.01.2013 20:00 6,9 C 94 % 1022,6 hPa 0,0 l/m 3,4 km/h (1 Bft) W 6,0 C 6,7 C
08.01.2013 21:00 6,9 C 94 % 1022,6 hPa 0,0 l/m 2,5 km/h (1 Bft) W 6,0 C 6,9 C
08.01.2013 22:00 6,9 C 94 % 1022,5 hPa 0,0 l/m 2,6 km/h (1 Bft) W 6,0 C 6,7 C
08.01.2013 23:00 6,9 C 94 % 1022,5 hPa 0,0 l/m 2,5 km/h (1 Bft) W 6,0 C 6,8 C
09.01.2013 00:00 6,9 C 94 % 1022,3 hPa 0,0 l/m 2,1 km/h (1 Bft) W 6,0 C 6,8 C
09.01.2013 01:00 6,9 C 95 % 1022,1 hPa 0,0 l/m 3,9 km/h (1 Bft) W 6,2 C 6,7 C
09.01.2013 02:00 6,9 C 95 % 1021,9 hPa 0,0 l/m 2,4 km/h (1 Bft) SW 6,2 C 6,9 C
09.01.2013 03:00 6,9 C 95 % 1021,6 hPa 0,0 l/m 1,8 km/h (1 Bft) S-SW 6,2 C 6,9 C
09.01.2013 04:00 6,9 C 95 % 1021,1 hPa 0,5 l/m 2,8 km/h (1 Bft) S-SW 6,2 C 6,8 C
09.01.2013 05:00 6,9 C 95 % 1020,6 hPa 0,0 l/m 2,7 km/h (1 Bft) S-SW 6,2 C 6,7 C
09.01.2013 06:00 6,9 C 95 % 1020,2 hPa 0,0 l/m 4,7 km/h (1 Bft) SW 6,2 C 6,4 C
09.01.2013 07:00 6,9 C 95 % 1019,8 hPa 0,5 l/m 5,3 km/h (1 Bft) S-SW 6,2 C 6,2 C
09.01.2013 08:00 6,9 C 95 % 1019,6 hPa 0,0 l/m 4,9 km/h (1 Bft) S-SW 6,2 C 6,4 C
09.01.2013 09:00 6,9 C 95 % 1019,1 hPa 0,5 l/m 6,0 km/h (2 Bft) S-SW 6,2 C 6,0 C
09.01.2013 10:00 7,0 C 95 % 1018,6 hPa 0,5 l/m 8,0 km/h (2 Bft) W-SW 6,3 C 5,7 C
09.01.2013 11:00 7,2 C 95 % 1017,9 hPa 0,0 l/m 8,0 km/h (2 Bft) W-SW 6,4 C 5,8 C
09.01.2013 12:00 7,2 C 94 % 1016,8 hPa 0,0 l/m 10,4 km/h (2 Bft) W 6,3 C 5,2 C
09.01.2013 13:00 7,1 C 94 % 1015,7 hPa 0,0 l/m 16,2 km/h (3 Bft) W-SW 6,2 C 4,3 C
09.01.2013 14:00 7,1 C 93 % 1014,9 hPa 0,5 l/m 12,5 km/h (3 Bft) W-SW 6,0 C 4,8 C
09.01.2013 15:00 6,9 C 93 % 1014,4 hPa 0,5 l/m 10,3 km/h (2 Bft) W-SW 5,8 C 5,0 C
09.01.2013 16:00 6,8 C 93 % 1013,7 hPa 0,5 l/m 12,4 km/h (3 Bft) W-SW 5,8 C 4,5 C
09.01.2013 17:00 6,7 C 93 % 1012,9 hPa 0,5 l/m 15,0 km/h (3 Bft) W 5,6 C 3,9 C
09.01.2013 18:00 6,5 C 94 % 1012,2 hPa 0,5 l/m 14,2 km/h (3 Bft) W-SW 5,5 C 3,9 C
09.01.2013 19:00 6,5 C 94 % 1011,9 hPa 0,5 l/m 9,9 km/h (2 Bft) W-NW 5,6 C 4,7 C
09.01.2013 20:00 6,7 C 94 % 1011,7 hPa 0,0 l/m 10,1 km/h (2 Bft) W-NW 5,7 C 4,7 C
09.01.2013 21:00 6,4 C 90 % 1011,6 hPa 0,0 l/m 13,3 km/h (3 Bft) W-NW 4,8 C 3,9 C
09.01.2013 22:00 5,9 C 87 % 1011,6 hPa 0,0 l/m 11,0 km/h (2 Bft) NW 3,9 C 3,8 C
09.01.2013 23:00 5,7 C 89 % 1011,4 hPa 0,0 l/m 12,9 km/h (3 Bft) W-NW 4,0 C 3,1 C
10.01.2013 00:00 5,3 C 90 % 1011,0 hPa 0,0 l/m 10,9 km/h (2 Bft) W-NW 3,8 C 3,0 C
10.01.2013 01:00 5,0 C 90 % 1010,7 hPa 0,0 l/m 14,2 km/h (3 Bft) W 3,5 C 2,0 C
10.01.2013 02:00 4,7 C 90 % 1010,5 hPa 0,0 l/m 14,7 km/h (3 Bft) W 3,2 C 1,5 C
10.01.2013 03:00 4,5 C 90 % 1010,0 hPa 0,0 l/m 12,0 km/h (2 Bft) W-SW 3,0 C 1,8 C
10.01.2013 04:00 4,2 C 90 % 1009,4 hPa 0,0 l/m 12,2 km/h (2 Bft) W-NW 2,7 C 1,4 C
10.01.2013 05:00 4,1 C 90 % 1008,9 hPa 0,0 l/m 12,7 km/h (3 Bft) W 2,6 C 1,2 C
10.01.2013 06:00 4,4 C 90 % 1008,5 hPa 0,0 l/m 11,8 km/h (2 Bft) W-SW 2,9 C 1,7 C
10.01.2013 07:00 4,6 C 89 % 1008,1 hPa 0,0 l/m 13,7 km/h (3 Bft) W-NW 3,0 C 1,6 C
10.01.2013 08:00 4,5 C 89 % 1007,9 hPa 0,0 l/m 13,4 km/h (3 Bft) W 3,0 C 1,6 C
10.01.2013 09:00 4,5 C 89 % 1007,3 hPa 0,0 l/m 15,6 km/h (3 Bft) W 2,9 C 1,4 C
10.01.2013 10:00 4,7 C 89 % 1007,1 hPa 0,5 l/m 13,8 km/h (3 Bft) W 2,9 C 1,7 C
10.01.2013 11:00 4,2 C 90 % 1006,9 hPa 1,0 l/m 14,0 km/h (3 Bft) W-NW 2,6 C 1,0 C
10.01.2013 12:00 2,4 C 92 % 1006,9 hPa 0,5 l/m 9,3 km/h (2 Bft) N-NO 1,2 C -0,0 C
10.01.2013 13:00 2,4 C 92 % 1006,6 hPa 0,0 l/m 6,8 km/h (2 Bft) N 1,2 C 0,6 C
10.01.2013 14:00 2,6 C 90 % 1006,7 hPa 0,0 l/m 9,9 km/h (2 Bft) N-NO 1,2 C 0,0 C
10.01.2013 15:00 2,2 C 88 % 1007,0 hPa 0,5 l/m 11,8 km/h (2 Bft) N-NO 0,4 C -1,0 C
10.01.2013 16:00 1,5 C 87 % 1007,4 hPa 0,0 l/m 13,2 km/h (3 Bft) N-NO -0,4 C -2,1 C
10.01.2013 17:00 1,0 C 89 % 1007,7 hPa 0,0 l/m 12,8 km/h (3 Bft) N -0,7 C -2,7 C
10.01.2013 18:00 0,7 C 89 % 1008,3 hPa 0,0 l/m 9,9 km/h (2 Bft) N-NO -0,9 C -2,3 C
10.01.2013 19:00 0,5 C 82 % 1008,6 hPa 0,0 l/m 12,0 km/h (2 Bft) NO -2,2 C -3,1 C
10.01.2013 20:00 0,6 C 79 % 1008,8 hPa 0,0 l/m 8,4 km/h (2 Bft) NO -2,7 C -2,1 C
10.01.2013 21:00 0,5 C 77 % 1009,2 hPa 0,0 l/m 8,1 km/h (2 Bft) NO -3,0 C -2,1 C
10.01.2013 22:00 0,4 C 80 % 1009,5 hPa 0,0 l/m 9,1 km/h (2 Bft) NO -2,6 C -2,5 C
10.01.2013 23:00 -0,3 C 86 % 1009,9 hPa 0,0 l/m 9,1 km/h (2 Bft) NO -2,3 C -3,4 C
11.01.2013 00:00 -0,4 C 88 % 1010,0 hPa 0,0 l/m 6,9 km/h (2 Bft) NO -2,1 C -2,3 C
11.01.2013 01:00 -0,2 C 85 % 1010,2 hPa 0,0 l/m 6,1 km/h (2 Bft) NO -2,4 C -2,2 C
11.01.2013 02:00 -0,2 C 86 % 1010,4 hPa 0,0 l/m 7,8 km/h (2 Bft) NO -2,3 C -2,7 C
11.01.2013 03:00 -0,3 C 84 % 1010,5 hPa 0,0 l/m 8,2 km/h (2 Bft) NO -2,7 C -3,0 C
11.01.2013 04:00 -0,4 C 83 % 1010,9 hPa 0,0 l/m 12,8 km/h (3 Bft) NO -2,9 C -4,3 C
11.01.2013 05:00 -0,6 C 84 % 1011,2 hPa 0,0 l/m 12,1 km/h (2 Bft) NO -3,0 C -4,4 C
11.01.2013 06:00 -0,7 C 86 % 1011,8 hPa 0,0 l/m 7,9 km/h (2 Bft) NO -2,8 C -3,3 C
11.01.2013 07:00 -1,0 C 86 % 1012,6 hPa 0,0 l/m 3,9 km/h (1 Bft) NO -3,0 C -1,8 C
11.01.2013 08:00 -1,2 C 86 % 1013,4 hPa 0,0 l/m 4,5 km/h (1 Bft) NO -3,3 C -2,1 C
11.01.2013 09:00 -1,0 C 87 % 1013,9 hPa 0,0 l/m 7,6 km/h (2 Bft) W -2,9 C -3,4 C
11.01.2013 10:00 -0,1 C 84 % 1014,1 hPa 0,0 l/m 8,5 km/h (2 Bft) W -2,4 C -3,0 C
11.01.2013 11:00 0,7 C 82 % 1014,4 hPa 0,0 l/m 8,1 km/h (2 Bft) W-NW -2,1 C -1,8 C
11.01.2013 12:00 0,9 C 81 % 1014,4 hPa 0,0 l/m 9,0 km/h (2 Bft) NW -2,0 C -1,6 C
11.01.2013 13:00 0,8 C 83 % 1014,5 hPa 0,0 l/m 8,9 km/h (2 Bft) NW -1,8 C -1,9 C
11.01.2013 14:00 0,6 C 84 % 1014,8 hPa 0,0 l/m 10,3 km/h (2 Bft) NW -1,8 C -2,2 C
11.01.2013 15:00 0,4 C 85 % 1015,3 hPa 0,0 l/m 10,0 km/h (2 Bft) W-NW -1,9 C -2,6 C
11.01.2013 16:00 -0,1 C 85 % 1015,6 hPa 0,0 l/m 10,2 km/h (2 Bft) N-NW -2,3 C -3,3 C
11.01.2013 17:00 -0,2 C 86 % 1015,9 hPa 0,0 l/m 8,5 km/h (2 Bft) NW -2,2 C -3,1 C
11.01.2013 18:00 -0,3 C 88 % 1016,2 hPa 0,0 l/m 8,5 km/h (2 Bft) NW -2,1 C -3,0 C
11.01.2013 19:00 -0,4 C 89 % 1016,3 hPa 0,0 l/m 6,3 km/h (2 Bft) W-NW -2,0 C -2,1 C
11.01.2013 20:00 -0,5 C 89 % 1016,6 hPa 0,0 l/m 5,7 km/h (1 Bft) NW -2,1 C -2,2 C
11.01.2013 21:00 -0,6 C 90 % 1017,1 hPa 0,0 l/m 6,2 km/h (2 Bft) N -2,1 C -2,4 C
11.01.2013 22:00 -1,1 C 89 % 1017,4 hPa 0,0 l/m 4,2 km/h (1 Bft) N-NO -2,6 C -1,9 C
11.01.2013 23:00 -1,7 C 90 % 1017,5 hPa 0,0 l/m 3,5 km/h (1 Bft) NW -3,2 C -2,6 C
12.01.2013 00:00 -2,2 C 91 % 1017,6 hPa 0,0 l/m 4,3 km/h (1 Bft) NW -3,5 C -3,3 C
12.01.2013 01:00 -2,2 C 91 % 1017,8 hPa 0,0 l/m 4,6 km/h (1 Bft) NW -3,5 C -3,6 C
12.01.2013 02:00 -2,3 C 91 % 1017,9 hPa 0,0 l/m 6,3 km/h (2 Bft) W-NW -3,5 C -4,5 C
12.01.2013 03:00 -2,9 C 91 % 1017,9 hPa 0,0 l/m 6,1 km/h (2 Bft) NW -4,2 C -5,3 C
12.01.2013 04:00 -3,3 C 91 % 1017,8 hPa 0,0 l/m 4,2 km/h (1 Bft) W-NW -4,6 C -4,6 C
12.01.2013 05:00 -3,6 C 91 % 1017,9 hPa 0,0 l/m 6,3 km/h (2 Bft) NW -4,9 C -6,1 C
12.01.2013 06:00 -3,8 C 92 % 1017,9 hPa 0,0 l/m 3,6 km/h (1 Bft) NW -4,9 C -4,6 C
12.01.2013 07:00 -3,5 C 92 % 1018,5 hPa 0,0 l/m 6,3 km/h (2 Bft) NW -4,6 C -5,9 C
12.01.2013 08:00 -3,0 C 92 % 1018,7 hPa 0,0 l/m 5,5 km/h (1 Bft) NW -4,1 C -4,9 C
12.01.2013 09:00 -2,5 C 92 % 1019,0 hPa 0,0 l/m 4,2 km/h (1 Bft) W-NW -3,7 C -3,3 C
12.01.2013 10:00 -2,0 C 91 % 1019,3 hPa 0,0 l/m 6,3 km/h (2 Bft) W -3,3 C -4,0 C
12.01.2013 11:00 -1,4 C 90 % 1019,6 hPa 0,0 l/m 5,9 km/h (2 Bft) W-NW -2,9 C -3,4 C
12.01.2013 12:00 -0,8 C 89 % 1019,5 hPa 0,0 l/m 5,0 km/h (1 Bft) N -2,4 C -2,2 C
12.01.2013 13:00 -0,3 C 87 % 1019,4 hPa 0,0 l/m 5,4 km/h (1 Bft) N-NO -2,2 C -1,6 C
12.01.2013 14:00 -0,2 C 87 % 1019,6 hPa 0,0 l/m 4,8 km/h (1 Bft) W-NW -2,1 C -1,0 C
12.01.2013 15:00 -0,4 C 87 % 1020,0 hPa 0,0 l/m 7,5 km/h (2 Bft) N-NO -2,2 C -2,9 C
12.01.2013 16:00 -0,3 C 87 % 1020,1 hPa 0,0 l/m 7,2 km/h (2 Bft) N-NO -2,1 C -2,5 C
12.01.2013 17:00 -0,4 C 88 % 1020,4 hPa 0,0 l/m 4,7 km/h (1 Bft) N-NO -2,1 C -1,4 C
12.01.2013 18:00 -0,3 C 89 % 1020,4 hPa 0,0 l/m 5,2 km/h (1 Bft) N-NO -1,9 C -1,4 C
12.01.2013 19:00 -0,4 C 89 % 1020,7 hPa 0,0 l/m 7,0 km/h (2 Bft) N-NO -2,0 C -2,7 C
12.01.2013 20:00 -0,5 C 90 % 1020,9 hPa 0,0 l/m 4,3 km/h (1 Bft) N-NO -1,9 C -1,5 C
12.01.2013 21:00 -0,6 C 90 % 1021,0 hPa 0,0 l/m 2,1 km/h (1 Bft) N-NO -2,1 C -0,6 C
12.01.2013 22:00 -0,9 C 91 % 1021,1 hPa 0,0 l/m 1,5 km/h (1 Bft) N-NO -2,2 C -1,2 C
12.01.2013 23:00 -1,0 C 90 % 1021,3 hPa 0,0 l/m 4,6 km/h (1 Bft) N -2,3 C -2,1 C
13.01.2013 00:00 -1,0 C 89 % 1021,2 hPa 0,0 l/m 2,6 km/h (1 Bft) N -2,6 C -1,3 C
13.01.2013 01:00 -0,9 C 88 % 1021,1 hPa 0,0 l/m 4,2 km/h (1 Bft) N-NO -2,6 C -2,0 C
13.01.2013 02:00 -1,0 C 88 % 1021,1 hPa 0,0 l/m 2,5 km/h (1 Bft) O-NO -2,8 C -1,4 C
13.01.2013 03:00 -1,2 C 89 % 1021,0 hPa 0,0 l/m 2,2 km/h (1 Bft) N -2,8 C -1,5 C
13.01.2013 04:00 -1,2 C 90 % 1020,9 hPa 0,0 l/m 1,9 km/h (1 Bft) O-NO -2,6 C -1,4 C
13.01.2013 05:00 -1,3 C 90 % 1020,8 hPa 0,0 l/m 4,3 km/h (1 Bft) O-SO -2,7 C -2,5 C
13.01.2013 06:00 -2,0 C 88 % 1021,0 hPa 0,0 l/m 3,3 km/h (1 Bft) O-SO -3,6 C -2,6 C
13.01.2013 07:00 -2,4 C 86 % 1021,4 hPa 0,0 l/m 2,0 km/h (1 Bft) O-SO -4,4 C -2,4 C
13.01.2013 08:00 -2,7 C 86 % 1021,8 hPa 0,0 l/m 2,1 km/h (1 Bft) NO -4,7 C -3,0 C
13.01.2013 09:00 -2,4 C 87 % 1022,2 hPa 0,0 l/m 3,7 km/h (1 Bft) O-SO -4,3 C -3,2 C
13.01.2013 10:00 -1,9 C 86 % 1022,6 hPa 0,0 l/m 7,5 km/h (2 Bft) O-SO -3,9 C -4,7 C
13.01.2013 11:00 -1,2 C 83 % 1022,3 hPa 0,0 l/m 5,6 km/h (1 Bft) O-SO -3,7 C -2,6 C
13.01.2013 12:00 -0,8 C 81 % 1021,7 hPa 0,0 l/m 4,9 km/h (1 Bft) O-SO -3,6 C -1,8 C
13.01.2013 13:00 -0,5 C 79 % 1021,4 hPa 0,0 l/m 6,5 km/h (2 Bft) O-NO -3,7 C -2,2 C
13.01.2013 14:00 -0,7 C 80 % 1021,3 hPa 0,0 l/m 5,8 km/h (2 Bft) O -3,8 C -2,3 C
13.01.2013 15:00 -1,3 C 82 % 1021,2 hPa 0,0 l/m 5,6 km/h (1 Bft) O-NO -4,0 C -2,9 C
13.01.2013 16:00 -2,1 C 82 % 1021,0 hPa 0,0 l/m 3,4 km/h (1 Bft) NO -4,9 C -2,4 C
13.01.2013 17:00 -3,2 C 83 % 1021,1 hPa 0,0 l/m 1,7 km/h (1 Bft) NO -5,7 C -3,3 C
13.01.2013 18:00 -3,6 C 85 % 1021,3 hPa 0,0 l/m 3,1 km/h (1 Bft) SO -5,8 C -4,5 C
13.01.2013 19:00 -3,5 C 86 % 1021,3 hPa 0,0 l/m 3,4 km/h (1 Bft) O-SO -5,5 C -4,3 C
13.01.2013 20:00 -3,4 C 86 % 1021,1 hPa 0,0 l/m 3,6 km/h (1 Bft) O-SO -5,3 C -4,3 C
13.01.2013 21:00 -3,2 C 86 % 1020,8 hPa 0,0 l/m 3,1 km/h (1 Bft) O-SO -5,2 C -3,3 C
13.01.2013 22:00 -3,0 C 86 % 1020,6 hPa 0,0 l/m 3,9 km/h (1 Bft) O-SO -5,0 C -3,8 C
13.01.2013 23:00 -2,7 C 86 % 1020,4 hPa 0,0 l/m 4,0 km/h (1 Bft) O-SO -4,7 C -4,0 C
Min-Datum _ 13.01.13 10.01.13 10.01.13 - 07.01.13 - 13.01.13 12.01.13
_ Min-Zeit 18:06 21:41 13:56 - 01:31 - 18:01 05:01
Minimum _ -3,9 C 76 % 1006,5 hPa - 0,0 km/h (0 Bft) - -6,3 C -7,8 C
Max-Datum _ 08.01.13 09.01.13 07.01.13 08.01.13 10.01.13 - 09.01.13 09.01.13
_ Max-Zeit 10:56 00:31 09:56 04:26 09:41 - 11:16 11:51
Maximum _ 7,2 C 95 % 1028,3 hPa 1,6 l/m 29,2 km/h
W (5 Bft)
- 6,5 C 7,2 C
Durchschnitt _ 2,6 C 90 % 1018,5 hPa #13,5 l/m 6,4 km/h (2 Bft) W 1,1 C 1,2 C
(c) by David Heller